Location: Goodsell Observatory
(44.4617°N, 93.1522°W)
Time: 15:47:20
(UTC-05:00)

Daily predictions for brighter satellites

Satellite Brightness Start Highest point End
(mag) Time Altitude Azimuth Time Altitude Azimuth Time Altitude Azimuth
Cosmos 2219 Rocket 4.1 21:30:59 10° N 21:34:45 18° NE 21:38:32 10° E
H-2A R/B 4.0 21:31:29 10° E 21:34:48 17° ENE 21:38:10 10° NNE
CZ-2C R/B 1.0 21:36:00 10° S 21:37:35 36° W 21:39:10 10° NNW
MetOp-A 4.5 21:35:00 10° SE 21:40:12 54° ENE 21:45:24 10° N
ARGOS 4.1 21:37:46 10° SE 21:42:36 34° ENE 21:47:26 10° N
Cosmos 1680 Rocket 3.8 21:38:58 10° NNW 21:44:08 56° ENE 21:49:18 10° SE
SPOT 1/Viking Rocket 4.2 21:41:41 10° SE 21:46:29 42° ENE 21:51:19 10° N
Cosmos 923 Rocket 4.0 21:42:40 10° NNW 21:47:54 77° ENE 21:53:06 10° SSE
Cosmos 2058 4.0 21:46:33 10° SSE 21:50:00 27° E 21:53:29 10° NNE
CZ-4B R/B 4.1 21:47:30 10° NNE 21:52:27 40° E 21:57:19 10° SSE
H-2A R/B 2.8 21:50:16 10° S 21:54:42 56° W 21:59:11 10° NNW
Cosmos 2219 3.8 21:50:43 10° S 21:55:57 37° ESE 22:01:12 10° NE
Cosmos 1441 Rocket 4.0 21:54:57 10° SSW 21:58:40 53° WNW 22:02:22 10° N
Terra 3.5 21:56:10 10° ESE 21:59:38 20° ENE 22:03:06 10° NNE
Cosmos 1726 3.5 21:56:52 10° NNE 22:00:02 25° ENE 22:02:46 12° SE
CZ-4 SHROUD 3.2 21:57:49 10° S 22:00:56 81° WSW 22:04:05 10° NNW
Cosmos 2322 3.8 21:56:53 10° NNW 22:02:39 89° ENE 22:08:14 11° SSE
Cosmos 2237 Rocket 4.0 21:59:11 10° N 22:03:22 20° NE 22:07:31 10° E
Cosmos 2322 Rocket 3.7 22:01:43 10° NW 22:06:36 31° WSW 22:11:26 10° SSW
USA 229 DEB 3.8 22:02:16 10° SW 22:09:13 86° NW 22:16:17 10° NE
USA 229 3.8 22:02:22 10° SW 22:09:19 86° NW 22:16:23 10° NE
CZ-4 R/B 4.4 22:07:18 10° NNE 22:12:00 42° E 22:16:33 10° S
SL-16 R/B 3.9 22:11:53 10° NW 22:16:37 28° WSW 22:21:20 10° SSW
Cosmos 1908 4.2 22:13:08 10° NNW 22:16:53 45° W 22:20:36 10° SSW
Cosmos 2360 Rocket 2.4 22:11:27 10° NNW 22:17:05 70° WSW 22:22:22 12° SSE
NOAA 11 4.3 22:16:38 13° SSE 22:21:26 68° ENE 22:26:53 10° N
NOSS 3-1 (A) 3.9 22:23:34 10° S 22:28:56 38° ESE 22:34:50 10° NE
USA 32 4.5 22:25:17 10° N 22:30:23 47° E 22:34:01 18° SSE
Meteor 1-11 4.3 22:25:23 10° S 22:31:05 64° E 22:36:45 10° NNE
Meteor 1-4 Rocket 3.3 22:28:35 10° N 22:32:10 39° ENE 22:34:10 21° SE
Cosmos 1674 4.3 22:31:24 10° SW 22:34:57 35° WNW 22:38:33 10° N
Delta 2 Rocket 4.4 22:32:50 10° SW 22:35:08 18° S 22:35:08 18° S
Cosmos 2242 Rocket 3.9 22:31:55 10° N 22:36:17 51° ENE 22:39:05 21° SSE
SPOT 5 4.2 22:35:29 10° SSW 22:39:37 34° W 22:43:58 10° NNW
Cosmos 1626 3.8 22:40:11 17° ESE 22:41:04 18° E 22:43:44 10° NE
Cosmos 1300 2.8 22:39:34 10° NNW 22:43:25 75° W 22:46:04 19° S
SL-08 RB Rocket 3.7 22:40:45 18° S 22:44:03 83° WSW 22:48:35 10° NNW
Cosmos 2227 Rocket 3.3 22:42:28 19° SE 22:44:43 25° ESE 22:49:13 10° NE
DELTA 2 DEB (DPAF) 4.1 22:42:51 21° SSE 22:45:54 80° ENE 22:50:24 10° NNW
Cosmos 1437 4.4 22:43:22 10° SW 22:46:23 33° WNW 22:49:26 10° N
USA 245 3.8 22:48:01 17° SSW 22:49:30 29° W 22:51:39 10° NW
SL-23 DEB 4.5 22:45:39 10° WNW 22:50:07 40° SW 22:51:40 25° S
Cosmos 2333 Rocket 2.9 22:45:52 10° NNW 22:51:24 46° ENE 22:55:11 20° ESE
ATLAS 2AS CENTAUR R/B 3.9 22:48:10 19° SSE 22:51:44 27° ESE 22:58:08 10° NE
Cosmos 1862 Rocket 4.4 22:48:48 10° N 22:52:49 35° ENE 22:54:46 23° ESE
Cosmos 2298 Rocket 4.0 22:48:38 10° SSW 22:53:56 76° ESE 22:59:16 10° NNE
DELTA 2 R/B (1) 4.4 22:49:55 10° W 22:54:47 32° SSW 22:57:09 23° SSE
SL-16 R/B 3.9 22:50:56 10° N 22:55:23 23° NE 22:59:45 10° E
CARTOSAT-1 3.6 22:54:18 26° SSE 22:56:41 69° ENE 23:01:00 10° N
Sich 1 3.1 22:56:58 16° S 23:00:28 82° W 23:04:54 10° N
Cosmos 1633 Rocket 3.0 22:58:07 17° S 23:01:26 84° W 23:05:50 10° N
Cosmos 1937 Rocket 3.6 22:58:30 20° S 23:01:58 55° ESE 23:07:04 10° NNE
COSMOS 2428 3.0 22:57:30 10° NNW 23:03:05 61° WSW 23:06:47 22° S
Cosmos 1869 4.1 23:02:27 10° N 23:06:15 37° ENE 23:07:41 28° ESE
Cosmos 1455 2.7 23:02:38 10° N 23:06:17 44° ENE 23:07:33 32° SE
CZ-4C R/B 3.4 23:05:06 27° S 23:06:47 55° W 23:10:13 10° NNW
ATLAS 3B R/B 3.7 23:03:47 10° NNW 23:10:27 40° NE 23:16:07 13° ESE
Cosmos 2297 Rocket 3.2 23:10:25 25° SE 23:12:03 29° ESE 23:16:51 10° NE
H-2A R/B 2.2 23:10:13 24° S 23:13:31 79° WSW 23:19:00 10° NNW
Cosmos 990 Rocket 4.1 23:13:39 28° SSE 23:16:08 52° ESE 23:21:08 10° NNE
NOSS 3-1 (C) 3.5 23:10:34 10° SW 23:16:29 83° NW 23:23:08 10° NE
Lacrosse 4 Rocket 3.4 23:13:19 10° N 23:16:45 22° NE 23:19:35 13° E
Cosmos 2219 Rocket 2.1 23:13:52 10° NNW 23:19:29 87° WSW 23:22:26 29° SSE
Landsat 7 4.4 23:18:17 22° SSW 23:21:09 50° W 23:25:48 10° NNW
ARGOS 4.4 23:18:34 13° SSW 23:22:48 35° W 23:27:43 10° NNW
BREEZE-M DEB (TANK) 2.0 23:24:55 10° WNW 23:26:59 78° NNE 23:27:42 46° ESE
Cosmos 292 Rocket 4.1 23:25:23 10° NNW 23:30:03 56° WSW 23:32:10 30° S
SAR-Lupe-2 4.1 23:31:37 36° SSW 23:32:42 52° W 23:36:14 10° NNW
Nadezhda 1 Rocket 4.0 23:27:39 10° N 23:33:44 77° W 23:37:15 27° S
Spot 4 4.0 23:31:37 31° S 23:33:54 69° WSW 23:38:46 10° NNW
Cosmos 1980 3.6 23:29:16 10° NNW 23:34:57 90° SW 23:37:35 33° SSE
Cosmos 1726 4.2 23:32:19 10° NW 23:35:19 22° W 23:37:27 14° SW
Cosmos 1703 4.1 23:34:09 22° SW 23:36:19 47° WNW 23:40:07 10° N
Cosmos 1271 Rocket 3.9 23:33:22 10° NNW 23:36:52 34° W 23:38:28 24° SW
Terra 2.4 23:34:39 26° SSW 23:37:01 50° W 23:41:40 10° NNW
Cosmos 1346 3.1 23:39:16 64° SW 23:39:33 71° W 23:42:35 10° N
H-2A R/B 4.4 23:37:25 10° NE 23:40:11 17° E 23:40:11 17° E
Cosmos 1898 Rocket 4.3 23:36:56 10° SW 23:41:57 49° WNW 23:47:02 10° NNE
COSMOS 2455 3.4 23:36:30 10° NNW 23:42:25 52° NE 23:45:49 25° ESE
CZ-4B R/B 3.7 23:44:09 15° E 23:44:49 16° ENE 23:46:56 10° NNE
Cosmos 1745 Rocket 4.4 23:42:06 17° SSW 23:46:58 58° WNW 23:53:04 10° N
Cosmos 1125 Rocket 4.0 23:46:29 36° SE 23:47:51 43° ESE 23:52:53 10° NNE
Cosmos 2237 Rocket 2.2 23:42:23 10° NNW 23:48:06 78° WSW 23:50:31 36° SSE
BREEZE-M TANK 3.7 23:30:37 10° WSW 23:48:17 79° SSE 23:52:16 10° ENE
Cosmos 1470 Rocket 4.2 23:48:55 25° SW 23:51:09 49° WNW 23:55:21 10° N
Cosmos 2082 3.6 23:49:10 27° SSW 23:52:25 82° ESE 23:58:11 10° NNE
Cosmos 1933 Rocket 4.2 23:50:13 25° SW 23:52:33 51° WNW 23:56:56 10° N
Cosmos 1703 Rocket 3.7 23:49:13 10° N 23:53:33 61° E 23:54:35 46° SE
Cosmos 2221 Rocket 3.8 23:49:48 10° N 23:54:20 60° E 23:55:32 44° SE
Okean 1-7 3.8 23:50:41 10° N 23:54:43 38° ENE 23:55:37 34° ESE
